| time (UTC) | temp F | wind direction | speed MPH | gust MPH | rain 1hr in | rain 24hr in | rain mn in | humidity % | barometer mb |
| 20260506232735 | 140 | 57 | 3.0 | 5.0 | 0.00 | 0.02 | 0.02 | 1013.4 | |
| 20260506232230 | 140 | 19 | 9.0 | 10.0 | 0.00 | 0.02 | 0.02 | 1013.5 | |
| 20260506231728 | 140 | 9 | 7.0 | 7.0 | 0.00 | 0.02 | 0.02 | 1013.5 | |
| 20260506231226 | 140 | 340 | 5.0 | 6.0 | 0.00 | 0.02 | 0.02 | 1013.6 | |
| 20260506230723 | 140 | 21 | 8.0 | 11.0 | 0.00 | 0.02 | 0.02 | 1013.4 | |
| 20260506230219 | 140 | 38 | 8.0 | 9.0 | 0.00 | 0.02 | 0.02 | 1013.4 | |
| 20260506225716 | 140 | 39 | 9.0 | 14.0 | 0.00 | 0.02 | 0.02 | 1013.5 | |
| 20260506225213 | 140 | 338 | 8.0 | 8.0 | 0.00 | 0.02 | 0.02 | 1013.3 | |
| 20260506224709 | 140 | 338 | 6.0 | 8.0 | 0.00 | 0.02 | 0.02 | 1013.4 | |
| 20260506224207 | 140 | 309 | 6.0 | 8.0 | 0.00 | 0.02 | 0.02 | 1013.4 | |
| 20260506223703 | 140 | 14 | 7.0 | 8.0 | 0.00 | 0.02 | 0.02 | 1013.3 | |
| 20260506223158 | 140 | 0 | 11.0 | 13.0 | 0.00 | 0.02 | 0.02 | 1013.2 | |
| 20260506222656 | 140 | 17 | 14.0 | 16.0 | 0.00 | 0.02 | 0.02 | 1013.1 | |
| 20260506222151 | 140 | 8 | 8.0 | 9.0 | 0.00 | 0.02 | 0.02 | 1013.3 | |
| 20260506221650 | 140 | 0 | 12.0 | 14.0 | 0.00 | 0.02 | 0.02 | 1013.2 | |
| 20260506221147 | 140 | 16 | 9.0 | 11.0 | 0.00 | 0.02 | 0.02 | 1013.5 | |
| 20260506220644 | 140 | 344 | 5.0 | 8.0 | 0.00 | 0.02 | 0.02 | 1013.1 | |
| 20260506220139 | 140 | 331 | 3.0 | 6.0 | 0.00 | 0.02 | 0.02 | 1013.0 | |
| 20260506215636 | 140 | 45 | 2.0 | 3.0 | 0.00 | 0.02 | 0.02 | 1013.1 | |
| 20260506215131 | 140 | 350 | 4.0 | 6.0 | 0.00 | 0.02 | 0.02 | 1012.9 | |
| 20260506214628 | 140 | 12 | 8.0 | 9.0 | 0.00 | 0.02 | 0.02 | 1013.3 | |
| 20260506214126 | 140 | 331 | 7.0 | 8.0 | 0.00 | 0.02 | 0.02 | 1013.1 | |
| 20260506213624 | 140 | 23 | 10.0 | 11.0 | 0.00 | 0.02 | 0.02 | 1013.2 | |
| 20260506213121 | 140 | 342 | 1.0 | 2.0 | 0.00 | 0.02 | 0.02 | 1013.4 | |
| 20260506212618 | 140 | 62 | 6.0 | 7.0 | 0.00 | 0.02 | 0.02 | 1013.1 | |
| 20260506212113 | 140 | 60 | 5.0 | 6.0 | 0.00 | 0.02 | 0.02 | 1013.3 | |
| 20260506211609 | 140 | 66 | 2.0 | 3.0 | 0.00 | 0.02 | 0.02 | 1013.4 | |
| 20260506211106 | 140 | 113 | 0.0 | 0.0 | 0.00 | 0.02 | 0.02 | 1013.6 | |
| 20260506210603 | 140 | 351 | 1.0 | 2.0 | 0.00 | 0.02 | 0.02 | 1013.5 | |
| 20260506210059 | 140 | 309 | 2.0 | 3.0 | 0.00 | 0.02 | 0.02 | 1013.7 | |
| 20260506205555 | 140 | 27 | 1.0 | 2.0 | 0.00 | 0.02 | 0.02 | 1013.6 | |
| 20260506205045 | 140 | 5 | 8.0 | 10.0 | 0.00 | 0.02 | 0.02 | 1013.6 | |
| 20260506204543 | 140 | 32 | 0.0 | 0.0 | 0.00 | 0.02 | 0.02 | 1013.6 | |
| 20260506204040 | 140 | 349 | 0.0 | 2.0 | 0.00 | 0.02 | 0.02 | 1013.9 | |
| 20260506203539 | 140 | 1 | 4.0 | 8.0 | 0.00 | 0.02 | 0.02 | 1013.9 | |
| 20260506203034 | 140 | 344 | 3.0 | 6.0 | 0.00 | 0.02 | 0.02 | 1013.9 | |
| 20260506202532 | 140 | 5 | 5.0 | 6.0 | 0.00 | 0.02 | 0.02 | 1013.9 | |
| 20260506202028 | 140 | 358 | 4.0 | 8.0 | 0.00 | 0.02 | 0.02 | 1013.7 | |
| 20260506201526 | 140 | 310 | 1.0 | 5.0 | 0.00 | 0.02 | 0.02 | 1014.1 | |
| 20260506201022 | 140 | 68 | 4.0 | 5.0 | 0.00 | 0.02 | 0.02 | 1014.0 | |
| 20260506200518 | 140 | 198 | 0.0 | 0.0 | 0.00 | 0.02 | 0.02 | 1014.2 | |
| 20260506200015 | 140 | 22 | 2.0 | 5.0 | 0.00 | 0.02 | 0.02 | 1014.2 | |
| 20260506195512 | 140 | 310 | 0.0 | 0.0 | 0.00 | 0.02 | 0.02 | 1014.6 | |
| 20260506195008 | 140 | 310 | 1.0 | 3.0 | 0.00 | 0.02 | 0.02 | 1014.4 | |
| 20260506194506 | 140 | 287 | 0.0 | 1.0 | 0.00 | 0.02 | 0.02 | 1014.7 | |
| 20260506194002 | 140 | 307 | 0.0 | 0.0 | 0.00 | 0.02 | 0.02 | 1014.4 | |
| 20260506193500 | 140 | 20 | 0.0 | 1.0 | 0.00 | 0.02 | 0.02 | 1014.7 | |
| 20260506192956 | 140 | 21 | 0.0 | 0.0 | 0.00 | 0.02 | 0.02 | 1014.4 | |
| 20260506192453 | 140 | 310 | 0.0 | 0.0 | 0.00 | 0.02 | 0.02 | 1014.9 | |
| 20260506191944 | 140 | 27 | 0.0 | 0.0 | 0.00 | 0.02 | 0.02 | 1015.0 | |
| 20260506191441 | 140 | 49 | 0.0 | 0.0 | 0.00 | 0.02 | 0.02 | 1015.2 | |
| 20260506190937 | 140 | 34 | 1.0 | 1.0 | 0.00 | 0.02 | 0.02 | 1014.9 | |
| 20260506190434 | 140 | 14 | 5.0 | 6.0 | 0.00 | 0.02 | 0.02 | 1015.2 | |
| 20260506185931 | 140 | 355 | 4.0 | 5.0 | 0.00 | 0.02 | 0.02 | 1015.0 | |
| 20260506185428 | 140 | 313 | 3.0 | 3.0 | 0.00 | 0.02 | 0.02 | 1015.5 | |
| 20260506184925 | 140 | 16 | 7.0 | 8.0 | 0.00 | 0.02 | 0.02 | 1015.3 | |
| 20260506184422 | 140 | 317 | 3.0 | 3.0 | 0.00 | 0.02 | 0.02 | 1015.2 | |
| 20260506183919 | 140 | 321 | 4.0 | 6.0 | 0.00 | 0.02 | 0.02 | 1014.9 | |
| 20260506183414 | 140 | 275 | 9.0 | 10.0 | 0.00 | 0.02 | 0.02 | 1014.9 | |
| 20260506182912 | 140 | 11 | 10.0 | 13.0 | 0.00 | 0.02 | 0.02 | 1014.8 | |
| 20260506182409 | 140 | 359 | 3.0 | 5.0 | 0.00 | 0.02 | 0.02 | 1015.0 | |
| 20260506181907 | 140 | 15 | 9.0 | 11.0 | 0.00 | 0.02 | 0.02 | 1015.0 | |
| 20260506181404 | 140 | 273 | 3.0 | 6.0 | 0.00 | 0.02 | 0.02 | 1014.8 | |
| 20260506180901 | 140 | 347 | 5.0 | 9.0 | 0.00 | 0.02 | 0.02 | 1015.1 | |
| 20260506180357 | 140 | 22 | 7.0 | 8.0 | 0.00 | 0.02 | 0.02 | 1014.9 | |
| 20260506175854 | 140 | 16 | 8.0 | 11.0 | 0.00 | 0.02 | 0.02 | 1014.8 | |
| 20260506175350 | 140 | 9 | 9.0 | 11.0 | 0.00 | 0.02 | 0.02 | 1014.9 | |
| 20260506174847 | 140 | 14 | 11.0 | 14.0 | 0.00 | 0.02 | 0.02 | 1015.2 | |
| 20260506174345 | 140 | 8 | 8.0 | 9.0 | 0.00 | 0.02 | 0.02 | 1015.1 | |
| 20260506173843 | 140 | 349 | 6.0 | 9.0 | 0.00 | 0.02 | 0.02 | 1015.2 | |
| 20260506173339 | 140 | 330 | 9.0 | 10.0 | 0.00 | 0.02 | 0.02 | 1015.6 | |
| 20260506172836 | 140 | 344 | 6.0 | 8.0 | 0.00 | 0.02 | 0.02 | 1015.4 | |
| 20260506172332 | 140 | 358 | 10.0 | 11.0 | 0.00 | 0.02 | 0.02 | 1015.4 | |
| 20260506171824 | 140 | 18 | 8.0 | 9.0 | 0.00 | 0.02 | 0.02 | 1015.4 | |
| 20260506171321 | 140 | 36 | 6.0 | 9.0 | 0.00 | 0.02 | 0.02 | 1015.2 | |
| 20260506170819 | 140 | 344 | 9.0 | 10.0 | 0.00 | 0.02 | 0.02 | 1015.0 | |
| 20260506170314 | 140 | 1 | 8.0 | 9.0 | 0.00 | 0.02 | 0.02 | 1015.4 | |
| 20260506165814 | 140 | 359 | 12.0 | 13.0 | 0.00 | 0.02 | 0.02 | 1015.1 | |
| 20260506165311 | 140 | 14 | 10.0 | 13.0 | 0.00 | 0.02 | 0.02 | 1014.9 | |
| 20260506164808 | 140 | 11 | 11.0 | 13.0 | 0.00 | 0.02 | 0.02 | 1014.7 | |
| 20260506164304 | 140 | 1 | 12.0 | 15.0 | 0.00 | 0.02 | 0.02 | 1014.8 | |
| 20260506163801 | 140 | 359 | 10.0 | 14.0 | 0.00 | 0.02 | 0.02 | 1015.0 | |
| 20260506163256 | 140 | 352 | 6.0 | 7.0 | 0.00 | 0.02 | 0.02 | 1015.2 | |
| 20260506162752 | 140 | 25 | 11.0 | 15.0 | 0.00 | 0.02 | 0.02 | 1015.2 | |
| 20260506162250 | 140 | 47 | 4.0 | 5.0 | 0.00 | 0.02 | 0.02 | 1015.0 | |
| 20260506161747 | 140 | 343 | 8.0 | 11.0 | 0.00 | 0.02 | 0.02 | 1014.9 | |
| 20260506161244 | 140 | 21 | 9.0 | 10.0 | 0.00 | 0.02 | 0.02 | 1015.1 | |
| 20260506160741 | 140 | 352 | 10.0 | 11.0 | 0.00 | 0.02 | 0.02 | 1014.8 | |
| 20260506160238 | 140 | 11 | 10.0 | 11.0 | 0.00 | 0.02 | 0.02 | 1014.6 | |
| 20260506155737 | 140 | 8 | 9.0 | 11.0 | 0.00 | 0.02 | 0.02 | 1015.1 | |
| 20260506155233 | 140 | 340 | 10.0 | 13.0 | 0.00 | 0.02 | 0.02 | 1014.9 | |
| 20260506153341 | 140 | 10 | 9.0 | 11.0 | 0.00 | 0.02 | 0.02 | 1014.0 | |
| 20260506152837 | 140 | 6 | 9.0 | 13.0 | 0.00 | 0.02 | 0.02 | 1014.4 | |
| 20260506152335 | 140 | 343 | 7.0 | 8.0 | 0.00 | 0.02 | 0.02 | 1014.5 | |
| 20260506151834 | 140 | 10 | 7.0 | 10.0 | 0.00 | 0.02 | 0.02 | 1014.4 | |
| 20260506151330 | 140 | 357 | 10.0 | 13.0 | 0.00 | 0.02 | 0.02 | 1014.5 | |
| 20260506150827 | 140 | 327 | 7.0 | 8.0 | 0.00 | 0.02 | 0.02 | 1014.9 | |
| 20260506150324 | 140 | 2 | 7.0 | 8.0 | 0.00 | 0.02 | 0.02 | 1014.8 | |
| 20260506145821 | 140 | 25 | 2.0 | 2.0 | 0.07 | 0.02 | 0.02 | 1015.1 | |
| 20260506145317 | 140 | 58 | 0.0 | 0.0 | 0.07 | 0.02 | 0.02 | 1015.4 | |
| 20260506144815 | 140 | 11 | 8.0 | 10.0 | 0.00 | 0.01 | 0.01 | 1015.4 | |
| 20260506144311 | 140 | 339 | 12.0 | 14.0 | 0.07 | 0.01 | 0.01 | 1014.7 | |
| 20260506143810 | 140 | 317 | 4.0 | 5.0 | 0.00 | 0.00 | 0.00 | 1016.7 | |
| 20260506143306 | 140 | 296 | 2.0 | 3.0 | 0.00 | 0.00 | 0.00 | 1017.1 | |
| 20260506142804 | 140 | 320 | 1.0 | 3.0 | 0.00 | 0.00 | 0.00 | 1016.6 | |
| 20260506142305 | 140 | 249 | 0.0 | 0.0 | 0.00 | 0.00 | 0.00 | 1016.4 | |
| 20260506141800 | 140 | 236 | 0.0 | 0.0 | 0.00 | 0.00 | 0.00 | 1016.4 | |
| 20260506141258 | 140 | 288 | 4.0 | 7.0 | 0.00 | 0.00 | 0.00 | 1015.6 | |
| 20260506140755 | 140 | 337 | 2.0 | 2.0 | 0.00 | 0.00 | 0.00 | 1015.0 | |
| 20260506140252 | 140 | 6 | 12.0 | 15.0 | 0.00 | 0.00 | 0.00 | 1013.5 | |
| 20260506135749 | 140 | 22 | 10.0 | 11.0 | 0.00 | 0.00 | 0.00 | 1014.2 | |
| 20260506135245 | 140 | 353 | 8.0 | 9.0 | 0.00 | 0.00 | 0.00 | 1014.8 | |
| 20260506134742 | 140 | 347 | 11.0 | 15.0 | 0.00 | 0.00 | 0.00 | 1014.7 | |
| 20260506134239 | 140 | 11 | 14.0 | 18.0 | 0.00 | 0.00 | 0.00 | 1014.7 | |
| 20260506133736 | 140 | 9 | 8.0 | 10.0 | 0.00 | 0.00 | 0.00 | 1015.1 | |
| 20260506133232 | 140 | 342 | 8.0 | 10.0 | 0.00 | 0.00 | 0.00 | 1015.5 | |
| 20260506132729 | 140 | 354 | 3.0 | 5.0 | 0.00 | 0.00 | 0.00 | 1015.2 | |
| 20260506132227 | 140 | 304 | 3.0 | 3.0 | 0.00 | 0.00 | 0.00 | 1015.6 | |
| 20260506131725 | 140 | 10 | 11.0 | 15.0 | 0.00 | 0.00 | 0.00 | 1015.6 | |
| 20260506131220 | 140 | 7 | 5.0 | 10.0 | 0.00 | 0.00 | 0.00 | 1014.5 | |
| 20260506130717 | 140 | 343 | 8.0 | 8.0 | 0.00 | 0.00 | 0.00 | 1014.0 | |
| 20260506130214 | 140 | 25 | 9.0 | 10.0 | 0.00 | 0.00 | 0.00 | 1014.1 | |
| 20260506125712 | 140 | 26 | 5.0 | 7.0 | 0.00 | 0.00 | 0.00 | 1014.0 | |
| 20260506125210 | 140 | 10 | 8.0 | 11.0 | 0.00 | 0.00 | 0.00 | 1013.8 | |
| 20260506124708 | 140 | 10 | 9.0 | 11.0 | 0.00 | 0.00 | 0.00 | 1013.7 | |
| 20260506124206 | 140 | 358 | 8.0 | 9.0 | 0.00 | 0.00 | 0.00 | 1013.3 | |
| 20260506123703 | 140 | 16 | 7.0 | 9.0 | 0.00 | 0.00 | 0.00 | 1013.1 | |
| 20260506123202 | 140 | 346 | 12.0 | 20.0 | 0.00 | 0.00 | 0.00 | 1013.3 | |
| 20260506122658 | 140 | 17 | 9.0 | 10.0 | 0.00 | 0.00 | 0.00 | 1013.1 | |
| 20260506122155 | 140 | 356 | 11.0 | 14.0 | 0.00 | 0.00 | 0.00 | 1013.2 | |
| 20260506121653 | 140 | 27 | 6.0 | 8.0 | 0.00 | 0.00 | 0.00 | 1013.3 | |
| 20260506121149 | 140 | 343 | 7.0 | 8.0 | 0.00 | 0.00 | 0.00 | 1013.2 | |
| 20260506120647 | 140 | 27 | 12.0 | 14.0 | 0.00 | 0.00 | 0.00 | 1013.2 | |
| 20260506120144 | 140 | 17 | 12.0 | 14.0 | 0.00 | 0.00 | 0.00 | 1013.1 | |
| 20260506115643 | 140 | 347 | 7.0 | 9.0 | 0.00 | 0.00 | 0.00 | 1012.7 | |
| 20260506115140 | 140 | 285 | 6.0 | 8.0 | 0.00 | 0.00 | 0.00 | 1013.1 | |
| 20260506114637 | 140 | 5 | 10.0 | 13.0 | 0.00 | 0.00 | 0.00 | 1013.2 | |
| 20260506114135 | 140 | 352 | 7.0 | 10.0 | 0.00 | 0.00 | 0.00 | 1012.9 | |
| 20260506113634 | 140 | 6 | 5.0 | 6.0 | 0.00 | 0.00 | 0.00 | 1013.2 | |
| 20260506113130 | 140 | 318 | 10.0 | 14.0 | 0.00 | 0.00 | 0.00 | 1013.2 | |
| 20260506112626 | 140 | 342 | 8.0 | 10.0 | 0.00 | 0.00 | 0.00 | 1012.8 | |
| 20260506112124 | 140 | 335 | 8.0 | 11.0 | 0.00 | 0.00 | 0.00 | 1012.7 | |
| 20260506111622 | 140 | 2 | 7.0 | 10.0 | 0.00 | 0.00 | 0.00 | 1012.6 | |
| 20260506111119 | 140 | 318 | 6.0 | 8.0 | 0.00 | 0.00 | 0.00 | 1012.6 | |
| 20260506110617 | 140 | 333 | 7.0 | 10.0 | 0.00 | 0.00 | 0.00 | 1012.3 | |
| 20260506110114 | 140 | 317 | 4.0 | 6.0 | 0.00 | 0.00 | 0.00 | 1012.4 | |
| 20260506105610 | 140 | 33 | 6.0 | 8.0 | 0.00 | 0.00 | 0.00 | 1012.1 | |
| 20260506105107 | 140 | 341 | 7.0 | 10.0 | 0.00 | 0.00 | 0.00 | 1012.2 | |
| 20260506104606 | 140 | 311 | 9.0 | 11.0 | 0.00 | 0.00 | 0.00 | 1011.8 | |
| 20260506104103 | 140 | 17 | 6.0 | 8.0 | 0.00 | 0.00 | 0.00 | 1011.8 | |
| 20260506103600 | 140 | 337 | 11.0 | 13.0 | 0.00 | 0.00 | 0.00 | 1011.7 | |
| 20260506103056 | 140 | 320 | 10.0 | 14.0 | 0.00 | 0.00 | 0.00 | 1011.9 | |
| 20260506102555 | 140 | 302 | 7.0 | 8.0 | 0.00 | 0.00 | 0.00 | 1011.8 | |
| 20260506102052 | 140 | 348 | 11.0 | 13.0 | 0.00 | 0.00 | 0.00 | 1011.7 | |
| 20260506101548 | 140 | 335 | 9.0 | 13.0 | 0.00 | 0.00 | 0.00 | 1011.6 | |
| 20260506101046 | 140 | 313 | 8.0 | 10.0 | 0.00 | 0.00 | 0.00 | 1011.6 | |
| 20260506100544 | 140 | 316 | 5.0 | 7.0 | 0.00 | 0.00 | 0.00 | 1011.3 | |
| 20260506100041 | 140 | 303 | 8.0 | 10.0 | 0.00 | 0.00 | 0.00 | 1011.1 | |
| 20260506095540 | 140 | 338 | 8.0 | 9.0 | 0.00 | 0.00 | 0.00 | 1011.3 | |
| 20260506095036 | 140 | 12 | 4.0 | 7.0 | 0.00 | 0.00 | 0.00 | 1011.0 | |
| 20260506094534 | 140 | 6 | 7.0 | 9.0 | 0.00 | 0.00 | 0.00 | 1011.1 | |
| 20260506094032 | 140 | 340 | 7.0 | 9.0 | 0.00 | 0.00 | 0.00 | 1010.8 | |
| 20260506093530 | 140 | 339 | 8.0 | 9.0 | 0.00 | 0.00 | 0.00 | 1010.5 | |
| 20260506093027 | 140 | 2 | 9.0 | 10.0 | 0.00 | 0.00 | 0.00 | 1010.6 | |
| 20260506092525 | 140 | 351 | 7.0 | 8.0 | 0.00 | 0.00 | 0.00 | 1010.6 | |
| 20260506092021 | 140 | 356 | 7.0 | 8.0 | 0.00 | 0.00 | 0.00 | 1010.6 | |
| 20260506091520 | 140 | 358 | 9.0 | 10.0 | 0.00 | 0.00 | 0.00 | 1010.7 | |
| 20260506091016 | 140 | 315 | 6.0 | 8.0 | 0.00 | 0.00 | 0.00 | 1010.8 | |
| 20260506090514 | 140 | 327 | 5.0 | 5.0 | 0.00 | 0.00 | 0.00 | 1010.8 | |
| 20260506090010 | 140 | 356 | 4.0 | 5.0 | 0.00 | 0.00 | 0.00 | 1010.4 | |
| 20260506085507 | 140 | 19 | 5.0 | 6.0 | 0.00 | 0.00 | 0.00 | 1010.5 | |
| 20260506085004 | 140 | 9 | 5.0 | 6.0 | 0.00 | 0.00 | 0.00 | 1010.3 | |
| 20260506084501 | 140 | 312 | 3.0 | 3.0 | 0.00 | 0.00 | 0.00 | 1010.7 | |
| 20260506083957 | 140 | 6 | 7.0 | 9.0 | 0.00 | 0.00 | 0.00 | 1010.6 | |
| 20260506083454 | 140 | 347 | 5.0 | 7.0 | 0.00 | 0.00 | 0.00 | 1010.4 | |
| 20260506082951 | 140 | 352 | 3.0 | 5.0 | 0.00 | 0.00 | 0.00 | 1010.4 | |
| 20260506082448 | 140 | 332 | 5.0 | 6.0 | 0.00 | 0.00 | 0.00 | 1010.3 | |
| 20260506081944 | 140 | 327 | 1.0 | 6.0 | 0.00 | 0.00 | 0.00 | 1010.2 | |
| 20260506081443 | 140 | 16 | 6.0 | 8.0 | 0.00 | 0.00 | 0.00 | 1010.2 | |
| 20260506080939 | 140 | 8 | 8.0 | 9.0 | 0.00 | 0.00 | 0.00 | 1010.2 | |
| 20260506080436 | 140 | 12 | 11.0 | 13.0 | 0.00 | 0.00 | 0.00 | 1010.0 | |
| 20260506073420 | 140 | 324 | 3.0 | 5.0 | 0.00 | 0.00 | 0.00 | 1010.0 | |
| 20260506072918 | 140 | 22 | 8.0 | 10.0 | 0.00 | 0.00 | 0.00 | 1010.1 | |
| 20260506072414 | 140 | 322 | 6.0 | 6.0 | 0.00 | 0.00 | 0.00 | 1010.5 | |
| 20260506071912 | 140 | 350 | 5.0 | 6.0 | 0.00 | 0.00 | 0.00 | 1010.1 | |
| 20260506071410 | 140 | 329 | 5.0 | 6.0 | 0.00 | 0.00 | 0.00 | 1010.5 | |
| 20260506070907 | 140 | 328 | 5.0 | 6.0 | 0.00 | 0.00 | 0.00 | 1010.3 | |
| 20260506070403 | 140 | 348 | 5.0 | 6.0 | 0.00 | 0.00 | 0.00 | 1010.1 | |
| 20260506062341 | 140 | 41 | 5.0 | 6.0 | 0.00 | 0.00 | 0.00 | 1009.2 | |
| 20260506061837 | 140 | 17 | 9.0 | 11.0 | 0.00 | 0.00 | 0.00 | 1009.0 | |
| 20260506061333 | 140 | 28 | 0.0 | 0.0 | 0.00 | 0.00 | 0.00 | 1009.1 | |
| 20260506060832 | 140 | 40 | 4.0 | 6.0 | 0.00 | 0.00 | 0.00 | 1009.6 | |
| 20260506060329 | 140 | 5 | 11.0 | 14.0 | 0.00 | 0.00 | 0.00 | 1009.6 | |
| 20260506051301 | 140 | 13 | 13.0 | 15.0 | 0.00 | 0.00 | 0.00 | 1009.6 | |
| 20260506050759 | 140 | 18 | 13.0 | 15.0 | 0.00 | 0.00 | 0.00 | 1009.6 | |
| 20260506050256 | 140 | 12 | 11.0 | 14.0 | 0.00 | 0.00 | 0.00 | 1009.7 | |
| 20260506044747 | 140 | 1 | 5.0 | 6.0 | 0.00 | 0.00 | 0.00 | 1009.5 | |
| 20260506044244 | 140 | 30 | 7.0 | 9.0 | 0.00 | 0.00 | 0.00 | 1009.6 | |
| 20260506043742 | 140 | 10 | 8.0 | 9.0 | 0.00 | 0.00 | 0.00 | 1009.8 | |
| 20260506043239 | 140 | 16 | 8.0 | 9.0 | 0.00 | 0.00 | 0.00 | 1009.6 | |
| 20260506042737 | 140 | 310 | 7.0 | 9.0 | 0.00 | 0.00 | 0.00 | 1009.5 | |
| 20260506042236 | 140 | 318 | 8.0 | 11.0 | 0.00 | 0.00 | 0.00 | 1009.2 | |
| 20260506041734 | 140 | 354 | 7.0 | 8.0 | 0.00 | 0.00 | 0.00 | 1009.6 | |
| 20260506041230 | 140 | 351 | 9.0 | 10.0 | 0.00 | 0.00 | 0.00 | 1009.6 | |
| 20260506040728 | 140 | 316 | 6.0 | 7.0 | 0.00 | 0.00 | 0.00 | 1009.5 | |
| 20260506040225 | 140 | 19 | 10.0 | 11.0 | 0.00 | 0.00 | 0.00 | 1009.5 | |
| 20260506035721 | 140 | 3 | 10.0 | 13.0 | 0.00 | 0.00 | 0.00 | 1009.5 | |
| 20260506035218 | 140 | 358 | 7.0 | 9.0 | 0.00 | 0.00 | 0.00 | 1009.4 | |
| 20260506034715 | 140 | 44 | 5.0 | 6.0 | 0.00 | 0.00 | 0.00 | 1009.6 | |
| 20260506034213 | 140 | 348 | 12.0 | 15.0 | 0.00 | 0.00 | 0.00 | 1009.4 | |
| 20260506033710 | 140 | 342 | 7.0 | 10.0 | 0.00 | 0.00 | 0.00 | 1009.4 | |
| 20260506033207 | 140 | 345 | 15.0 | 18.0 | 0.00 | 0.00 | 0.00 | 1009.4 | |
| 20260506032703 | 140 | 8 | 13.0 | 14.0 | 0.00 | 0.00 | 0.00 | 1009.2 | |
| 20260506032201 | 140 | 23 | 7.0 | 9.0 | 0.00 | 0.00 | 0.00 | 1009.2 | |
| 20260506031657 | 140 | 308 | 5.0 | 6.0 | 0.00 | 0.00 | 0.00 | 1008.9 | |
| 20260506031155 | 140 | 19 | 13.0 | 15.0 | 0.00 | 0.00 | 0.00 | 1008.6 | |
| 20260506030653 | 140 | 35 | 7.0 | 10.0 | 0.00 | 0.00 | 0.00 | 1008.4 | |
| 20260506030149 | 140 | 357 | 11.0 | 14.0 | 0.00 | 0.00 | 0.00 | 1008.7 | |
| 20260506025646 | 140 | 18 | 8.0 | 10.0 | 0.00 | 0.00 | 0.00 | 1008.6 | |
| 20260506025142 | 140 | 4 | 11.0 | 11.0 | 0.00 | 0.00 | 0.00 | 1008.4 | |
| 20260506024640 | 140 | 356 | 11.0 | 13.0 | 0.00 | 0.00 | 0.00 | 1008.2 | |
| 20260506024136 | 140 | 316 | 6.0 | 7.0 | 0.00 | 0.00 | 0.00 | 1008.1 | |
| 20260506023632 | 140 | 6 | 10.0 | 13.0 | 0.00 | 0.00 | 0.00 | 1007.9 | |
| 20260506023130 | 140 | 14 | 10.0 | 11.0 | 0.00 | 0.00 | 0.00 | 1007.7 | |
| 20260506022627 | 140 | 2 | 10.0 | 13.0 | 0.00 | 0.00 | 0.00 | 1007.3 | |
| 20260506022124 | 140 | 342 | 9.0 | 11.0 | 0.00 | 0.00 | 0.00 | 1007.3 | |
| 20260506021622 | 140 | 28 | 7.0 | 8.0 | 0.00 | 0.00 | 0.00 | 1007.6 | |
| 20260506021119 | 140 | 358 | 9.0 | 11.0 | 0.00 | 0.00 | 0.00 | 1007.1 | |
| 20260506020616 | 140 | 16 | 7.0 | 10.0 | 0.00 | 0.00 | 0.00 | 1006.7 | |
| 20260506020114 | 140 | 15 | 11.0 | 13.0 | 0.00 | 0.00 | 0.00 | 1006.6 | |
| 20260506015611 | 140 | 7 | 7.0 | 11.0 | 0.00 | 0.00 | 0.00 | 1006.7 | |
| 20260506015108 | 140 | 343 | 7.0 | 8.0 | 0.00 | 0.00 | 0.00 | 1007.0 | |
| 20260506014606 | 140 | 32 | 9.0 | 11.0 | 0.00 | 0.00 | 0.00 | 1006.9 | |
| 20260506014101 | 140 | 333 | 0.0 | 0.0 | 0.00 | 0.00 | 0.00 | 1006.8 | |
| 20260506013559 | 140 | 16 | 1.0 | 5.0 | 0.00 | 0.00 | 0.00 | 1006.5 | |
| 20260506013055 | 140 | 6 | 7.0 | 9.0 | 0.00 | 0.00 | 0.00 | 1006.2 | |
| 20260506012552 | 140 | 28 | 6.0 | 8.0 | 0.00 | 0.00 | 0.00 | 1006.3 | |
| 20260506012048 | 140 | 3 | 8.0 | 9.0 | 0.00 | 0.00 | 0.00 | 1006.4 | |
| 20260506011546 | 140 | 10 | 11.0 | 15.0 | 0.00 | 0.00 | 0.00 | 1006.0 | |
| 20260506011037 | 140 | 337 | 6.0 | 7.0 | 0.00 | 0.00 | 0.00 | 1006.2 | |
| 20260506010537 | 140 | 358 | 5.0 | 6.0 | 0.00 | 0.00 | 0.00 | 1005.9 | |
| 20260506010033 | 140 | 35 | 6.0 | 8.0 | 0.00 | 0.00 | 0.00 | 1005.6 | |
| 20260506005530 | 140 | 37 | 1.0 | 2.0 | 0.00 | 0.00 | 0.00 | 1005.5 | |
| 20260506005025 | 140 | 356 | 2.0 | 3.0 | 0.00 | 0.00 | 0.00 | 1005.3 | |
| 20260506004523 | 140 | 348 | 9.0 | 10.0 | 0.00 | 0.00 | 0.00 | 1005.1 | |
| 20260506004020 | 140 | 351 | 11.0 | 15.0 | 0.00 | 0.00 | 0.00 | 1005.0 | |
| 20260506003516 | 140 | 346 | 11.0 | 11.0 | 0.00 | 0.00 | 0.00 | 1005.0 | |
| 20260506003012 | 140 | 318 | 7.0 | 9.0 | 0.00 | 0.00 | 0.00 | 1005.3 | |
| 20260506002508 | 140 | 358 | 6.0 | 7.0 | 0.00 | 0.00 | 0.00 | 1005.1 | |
| 20260506002003 | 140 | 347 | 9.0 | 10.0 | 0.00 | 0.00 | 0.00 | 1005.1 | |
| 20260506001501 | 140 | 0 | 11.0 | 11.0 | 0.00 | 0.00 | 0.00 | 1005.0 | |
| 20260506000958 | 140 | 17 | 12.0 | 16.0 | 0.00 | 0.00 | 0.00 | 1004.7 | |
| 20260506000455 | 140 | 10 | 9.0 | 11.0 | 0.00 | 0.00 | 0.00 | 1005.2 | |
| 20260505235952 | 140 | 3 | 13.0 | 16.0 | 0.00 | 0.00 | 0.00 | 1005.1 | |
| 20260505235451 | 140 | 311 | 5.0 | 6.0 | 0.00 | 0.00 | 0.00 | 1004.8 | |
| 20260505234947 | 140 | 354 | 6.0 | 8.0 | 0.00 | 0.00 | 0.00 | 1004.8 | |
| 20260505234444 | 140 | 331 | 8.0 | 9.0 | 0.00 | 0.00 | 0.00 | 1004.9 | |
| 20260505233941 | 140 | 354 | 5.0 | 7.0 | 0.00 | 0.00 | 0.00 | 1004.8 | |
| 20260505233439 | 140 | 353 | 8.0 | 13.0 | 0.00 | 0.00 | 0.00 | 1004.7 |